This demonstration page uses our WeatherBlox Daily Observations layout. Learn more.

Left ArrowRight Arrow

39.12711, -84.51439

Hourly Observations for April 19, 2019

Temp ( °F °C ) Dew Point ( °F °C ) Humidity (%) Winds ( mph kmh ) Pressure ( in mb ) Visibility ( mi km ) Precip ( " mm )
12:53 am 00:53 Mostly Cloudy 61 16.1 55 12.8 81 81 VRB 7 11 29.58 1002 10 16 0.00 0.00
1:08 am 01:08 Mostly Cloudy 61 16.1 55 12.8 81 81 NNW 6 9 29.59 1002 10 16 0.00 0.00
1:53 am 01:53 Cloudy with Light Rain 59 15 54 12.2 83 83 VRB 6 9 29.57 1001 10 16 0.00 0.03
2:14 am 02:14 Cloudy with Rain 58 14.4 55 12.8 90 90 WSW 6 9 29.60 1002 5 8 0.02 0.51
2:21 am 02:21 Cloudy with Heavy Rain 58 14.4 55 12.8 90 90 VRB 5 7 29.60 1002 2 3 0.10 2.54
2:29 am 02:29 Cloudy with Rain 58 14.4 55 12.8 90 90 N 9 15 29.57 1001 3 5 0.13 3.30
2:40 am 02:40 Cloudy with Light Rain 57 13.9 55 12.8 93 93 NNE 7 11 29.57 1001 7 11 0.14 3.56
2:53 am 02:53 Cloudy with Rain 57 13.9 55 12.8 93 93 NE 6 9 29.55 1001 5 8 0.16 4.06
3:08 am 03:08 Cloudy with Rain 57 13.9 55 12.8 93 93 VRB 5 7 29.55 1001 5 8 0.03 0.76
3:37 am 03:37 Cloudy with Light Rain 57 13.9 55 12.8 93 93 N 6 9 29.53 1000 8 13 0.05 1.27
3:53 am 03:53 Cloudy with Heavy Rain 57 13.9 55 12.8 93 93 NNE 8 13 29.50 999 3 4 0.11 2.79
4:06 am 04:06 Cloudy with Light Rain 57 13.9 55 12.8 93 93 N 6 9 29.52 1000 4 6 0.02 0.51
4:19 am 04:19 Cloudy with Light Rain 56 13.3 54 12.2 93 93 N 8 13 29.51 999 5 8 0.03 0.76
4:53 am 04:53 Cloudy with Light Rain 56 13.3 53 11.7 90 90 NNW 10 17 29.51 999 5 8 0.04 1.02
5:10 am 05:10 Cloudy with Rain 53 11.7 51 10.6 93 93 NW 9 15 29.53 1000 3 4 0.05 1.27
5:19 am 05:19 Cloudy with Light Rain 52 11.1 50 10 93 93 NNW 13 20 29.54 1000 5 8 0.06 1.52
5:34 am 05:34 Cloudy with Light Rain 51 10.6 49 9.4 92 92 N 13 20 29.55 1001 10 16 0.06 1.52
5:53 am 05:53 Cloudy with Light Rain 50 10 47 8.3 89 89 NW 9 15 29.54 1000 8 13 0.06 1.52
6:53 am 06:53 Cloudy with Light Rain 48 8.9 45 7.2 89 89 N 7 11 29.57 1001 10 16 0.00 0.03
7:53 am 07:53 Cloudy 47 8.3 43 6.1 86 86 N 9 15 29.58 1002 10 16 0.01 0.25
8:53 am 08:53 Cloudy 47 8.3 43 6.1 86 86 N 8 13 29.59 1002 10 16 0.00 0.00
9:53 am 09:53 Cloudy with Light Rain 47 8.3 44 6.7 90 90 N 9 15 29.58 1002 3 5 0.00 0.03
10:53 am 10:53 Cloudy with Light Rain 48 8.9 45 7.2 89 89 N 9 15 29.59 1002 3 4 0.01 0.25
11:53 am 11:53 Cloudy 49 9.4 46 7.8 90 90 NNE 9 15 29.58 1002 7 11 0.00 0.03
12:53 pm 12:53 Cloudy with Light Rain 49 9.4 46 7.8 90 90 N 13 20 29.57 1001 3 5 0.01 0.25
1:02 pm 13:02 Cloudy with Heavy Rain 49 9.4 46 7.8 90 90 N 14 22 29.58 1002 2 3 0.02 0.51
1:24 pm 13:24 Cloudy with Light Rain 49 9.4 46 7.8 90 90 N 8 13 29.58 1002 3 5 0.06 1.52
1:51 pm 13:51 Cloudy with Light Rain 52 11 46 8 82 82 N 8 13 29.57 1001 4 6 0.07 1.78
1:53 pm 13:53 Cloudy with Light Rain 51 10.6 48 8.9 89 89 N 8 13 29.56 1001 4 6 0.07 1.78
2:31 pm 14:31 Cloudy with Light Rain 50 10 47 8.3 89 89 N 10 17 29.56 1001 5 8 0.02 0.51
2:45 pm 14:45 Cloudy with Light Rain 50 10 47 8.3 89 89 N 10 17 29.57 1001 5 8 0.03 0.76
2:51 pm 14:51 Cloudy with Light Rain 50 10 46 8 88 88 N 10 17 29.57 1001 6 10 0.03 0.76
2:53 pm 14:53 Cloudy with Light Rain 50 10 47 8.3 89 89 N 9 15 29.56 1001 7 11 0.03 0.76
3:29 pm 15:29 Cloudy with Light Rain 51 10.6 47 8.3 86 86 NNE 15 24 29.55 1001 10 16 0.01 0.25
3:53 pm 15:53 Cloudy 50 10 46 7.8 86 86 N 14 22 29.52 1000 10 16 0.01 0.25
4:51 pm 16:51 Cloudy with Heavy Rain 50 10 46 8 88 88 VRB 6 9 29.55 1001 2 3 0.10 2.54
4:53 pm 16:53 Cloudy with Heavy Rain 50 10 47 8.3 89 89 NNW 8 13 29.54 1000 2 3 0.11 2.79
5:39 pm 17:39 Cloudy with Rain 49 9.4 47 8.3 93 93 NE 10 17 29.53 1000 3 5 0.17 4.32
5:53 pm 17:53 Cloudy with Rain 49 9.4 46 7.8 90 90 NNE 13 20 29.52 1000 5 8 0.20 5.08
6:08 pm 18:08 Cloudy with Rain 49 9.4 46 7.8 90 90 NNE 17 28 29.50 999 3 5 0.05 1.27
6:53 pm 18:53 Cloudy with Light Rain 49 9.4 46 7.8 90 90 N 13 20 29.50 999 10 16 0.09 2.29
7:30 pm 19:30 Cloudy 49 9.4 45 7.2 86 86 NNE 16 26 29.52 1000 10 16 0.00 0.03
7:53 pm 19:53 Cloudy 49 9.4 44 6.7 83 83 NNE 13 20 29.52 1000 10 16 0.00 0.03
8:53 pm 20:53 Cloudy with Light Rain 48 8.9 43 6.1 83 83 NNE 17 28 29.54 1000 10 16 0.00 0.03
9:53 pm 21:53 Cloudy with Light Rain 47 8.3 43 6.1 86 86 NNE 16 26 29.54 1000 10 16 0.01 0.25
10:53 pm 22:53 Cloudy with Light Rain 46 7.8 41 5 83 83 NNE 21 33 29.52 1000 10 16 0.02 0.51
11:53 pm 23:53 Cloudy with Light Rain 45 7.2 41 5 86 86 NNE 14 22 29.51 999 5 8 0.00 0.03

Powered by AerisWeather